Weather in Baharly

Turkmenistan     38°26′03″N   57°25′54″E
temp.,
°C
wind,
m/s
gust,
m/s
humid.,
%
clouds,
%
prec.,
mm/h
press.,
hPa
HPBL,
m
6 march, sat
sat623:00+11nnw447499 1.8 1015184
02:00+10nnw3478100 1.2 1016270
05:00+9n3377100 1.6 1018458
08:00+8nw101276100 0.2 1020697
11:00+7nnw6777100 0.3 1023585
14:00+7nne1179100 0.5 1023343
17:00+8e227597 0.9 1022370
20:00+7ese227529 0.0 102352
7 march, sun
sun723:00+7se467619 0.0 1023123
02:00+7ese58770 0.0 1021147
05:00+6ese59810 0.0 1019175
08:00+6ese610780 0.0 1017198
11:00+12ese810510 0.0 1016453
14:00+18ese77320 0.0 1013694
17:00+19e552817 0.0 1011759
20:00+15ene2244100 0.0 101423
8 march, mon
mon823:00+14nw61042100 0.0 1016202
02:00+10nw475598 0.0 1018155
05:00+9nnw455660 0.0 101974
08:00+8nw58720 0.0 1021177
11:00+11nnw55612 0.0 1022850
14:00+11nne225687 0.0 10201010
17:00+13ese334775 0.0 10171165
20:00+12ese354874 0.0 1016587
9 march, tue
tue923:00+11se366062 0.1 1015154
02:00+10se466355 0.1 1013146
05:00+9ese466866 0.1 1011140
08:00+8e22740 0.0 101024
11:00+12ese34510 0.0 1010436
14:00+16ne213837 0.0 1009706
17:00+17nw893968 0.1 10111330
20:00+14nw10125067 0.0 1014457
10 march, wed
wed1023:00+12nw8106362 0.0 1016305
02:00+10nw696436 0.0 1017211
05:00+8nw7116518 0.0 1018281
08:00+5nnw610700 0.0 1021492
11:00+8nnw55580 0.0 1022770
14:00+10n32480 0.0 1021938
17:00+11ne224421 0.0 10201116
20:00+11ene22450 0.0 1020280